Lapse_Rate
1.8 1.9 1.9 1.7 2.1 1.9 2.6 3.3 3.3 3.7 3.7 3.5 3.9 4.4 4.4 4.2 4.0 3.9 4.2 4.2 5.2 6.2 6.7 6.7 6.6 6.7 7.4 8.6 7.8 5.8 5.8 5.8 5.8 5.9 5.7 5.9 5.8 6.0 6.4 6.7 7.6 8.0 7.8
1.8 1.9 2.1 1.6 2.0 1.9 1.8 2.9 3.4 3.6 3.4 3.5 3.7 3.4 3.7 4.1 4.2 4.2 4.5 4.6 4.2 5.2 6.0 6.2 6.3 6.4 6.7 7.2 7.0 6.2 5.6 5.5 5.4 5.5 5.7 5.5 5.2 5.3 5.6 6.3 7.2 7.9 8.2
2.0 1.9 1.6 1.8 1.6 1.5 2.0 2.4 2.4 2.9 3.5 2.6 3.4 3.1 3.5 4.0 4.4 4.5 4.3 4.4 4.3 3.7 4.5 5.4 5.7 5.8 6.0 6.3 6.5 6.6 6.2 5.7 5.5 5.4 5.6 5.7 5.6 5.4 5.6 6.3 6.2 6.2 6.9
1.7 1.7 1.9 1.7 1.0 1.3 1.9 2.3 2.5 3.0 3.1 2.7 3.0 3.3 3.4 3.7 4.0 4.3 4.2 4.4 4.0 4.0 3.6 4.0 4.5 4.9 5.1 5.6 6.1 6.3 6.3 6.0 5.8 5.7 5.7 5.7 5.7 5.7 5.8 5.9 6.0 6.2 6.1
1.6 2.0 1.8 1.1 0.8 1.0 1.5 2.1 1.3 2.2 3.0 2.4 2.6 3.0 3.2 3.8 3.9 4.2 4.3 4.0 3.8 3.8 3.9 3.3 2.9 3.1 4.0 5.0 5.8 6.3 6.6 6.3 6.0 6.0 5.9 5.9 5.8 5.9 6.1 6.2 6.2 6.1 6.1
1.3 1.5 1.3 0.9 0.9 1.3 1.3 0.9 1.3 0.9 1.3 1.1 2.0 2.6 2.4 3.1 3.4 4.3 4.4 4.1 3.9 3.8 3.8 3.5 3.5 3.7 3.0 4.1 5.0 5.8 6.4 6.8 6.9 6.9 6.6 6.4 6.3 6.3 6.3 6.4 7.0 8.4 8.5
1.2 1.3 1.0 0.9 0.4 1.2 0.9 0.8 1.1 1.8 1.5 0.5 2.7 3.2 3.0 3.0 3.6 3.7 3.5 4.1 4.0 3.8 3.9 3.9 3.8 3.7 3.8 3.1 3.7 4.1 5.3 6.1 6.7 7.0 7.3 7.3 7.4 7.2 7.4 7.4 8.0 8.9 9.3
1.1 1.1 1.0 0.7 0.6 0.9 1.1 0.5 1.4 1.9 1.2 0.1 2.2 1.8 4.5 5.5 4.6 3.0 3.2 3.7 3.5 3.4 4.2 3.8 3.6 3.7 3.6 3.4 2.8 3.2 3.9 4.7 5.5 6.1 6.5 6.9 7.0 7.1 7.4 8.8 9.2 9.4 9.4
1.2 0.9 0.7 0.9 0.8 1.0 1.0 0.5 1.2 2.2 2.2 1.1 0.8 3.2 5.0 5.5 3.2 3.8 3.4 3.5 3.9 4.5 4.4 3.8 3.9 3.5 3.3 3.2 2.7 2.9 2.8 3.6 4.7 5.7 6.4 7.0 7.4 8.1 8.8 9.1 9.4 9.5 9.4
1.3 1.2 0.5 1.2 0.8 0.6 1.5 1.2 1.1 1.5 2.2 2.7 2.2 2.0 2.1 3.2 5.3 6.0 4.7 3.7 3.4 4.9 4.5 4.0 3.9 3.6 3.0 2.8 2.3 2.0 3.0 4.4 5.6 6.4 6.9 7.9 9.3 9.4 9.4 9.3 9.4 9.4 9.4
1.4 1.4 0.9 1.4 1.2 1.2 1.0 1.5 1.4 1.7 1.9 2.5 3.0 3.1 3.0 2.8 2.9 5.1 5.6 4.3 3.2 3.2 3.2 3.6 3.0 3.3 3.2 2.8 2.8 2.8 3.8 4.8 5.4 6.0 6.6 7.2 8.4 9.4 9.4 9.5 9.6 9.3 9.2
1.9 1.8 1.1 1.7 1.4 1.2 1.5 1.6 1.1 1.6 1.8 1.8 2.0 2.4 3.4 4.3 4.2 4.5 4.5 3.7 3.2 2.4 2.5 2.3 3.3 3.1 3.5 3.5 3.4 3.3 3.9 4.4 4.7 5.2 6.2 7.0 8.6 9.3 9.3 9.3 9.4 9.5 9.2
2.3 2.3 1.9 1.8 2.1 1.2 1.3 1.5 1.7 1.9 1.9 2.2 2.1 2.3 2.0 2.5 2.6 3.1 3.6 4.7 4.1 3.7 3.2 2.9 3.3 4.1 4.1 4.1 3.8 3.2 3.4 3.7 4.1 4.8 5.7 6.6 7.6 7.8 8.2 8.2 8.7 9.1 9.2
2.8 2.2 2.2 1.7 2.0 1.5 1.7 1.5 1.7 1.5 1.4 1.3 1.5 1.6 1.8 2.0 2.0 2.6 3.8 4.5 6.0 5.0 4.5 3.9 3.3 3.6 4.2 4.6 4.6 4.1 4.6 3.8 4.2 4.9 5.4 5.8 6.0 5.9 6.0 6.3 6.8 7.3 8.5
2.3 2.2 2.0 1.8 1.4 1.9 1.6 1.5 1.7 1.4 1.5 1.3 1.3 1.2 1.7 2.0 1.9 2.3 2.8 3.7 5.2 7.6 7.9 6.9 5.3 3.7 4.4 3.8 3.5 4.0 4.3 4.3 4.7 5.3 5.6 5.7 5.6 5.4 5.6 5.9 6.2 6.6 7.1
2.3 2.3 2.1 1.5 1.6 1.3 1.1 1.3 1.2 0.9 1.6 1.1 1.1 1.6 1.6 1.8 2.1 2.4 2.9 3.5 3.9 5.4 7.4 6.9 6.7 6.3 4.8 4.2 4.2 4.5 4.2 3.6 4.2 4.6 5.4 6.0 6.3 6.4 6.2 6.3 6.4 6.9 7.7
2.5 2.0 1.6 1.7 1.6 1.2 1.0 1.2 0.9 1.0 1.3 1.3 0.9 1.2 1.9 1.5 2.5 2.8 2.8 3.4 4.1 4.7 5.5 6.2 6.7 6.4 6.0 5.9 5.1 4.6 4.4 4.8 4.9 4.3 4.7 5.1 5.8 6.3 6.6 7.0 7.2 8.5 8.5
1.6 1.8 1.4 1.1 1.1 0.8 1.0 1.2 1.1 0.9 1.2 1.3 1.4 1.7 2.1 2.3 2.8 3.2 3.6 3.8 4.0 4.7 4.9 5.7 6.5 6.7 6.9 6.8 6.1 6.6 6.2 5.9 6.5 6.2 5.5 5.8 6.2 6.4 6.9 7.7 8.5 9.2 9.2
1.1 1.1 1.0 1.1 1.0 0.7 0.8 0.7 0.8 0.9 1.0 1.4 1.7 2.0 2.3 2.5 3.2 3.5 3.7 3.9 4.3 4.8 5.2 5.7 6.5 7.9 8.3 9.0 8.9 9.1 9.1 9.5 9.3 8.1 7.5 7.1 7.0 8.0 9.0 9.4 9.4 9.4 9.2
1.0 0.5 0.6 0.7 0.6 0.6 0.7 0.7 0.9 1.2 1.6 1.8 2.0 2.2 2.7 3.0 3.3 3.7 4.2 4.7 5.3 5.8 6.5 6.9 8.1 8.3 8.8 9.0 8.9 8.9 9.2 9.6 9.6 9.6 8.9 8.5 8.8 8.4 8.3 8.4 8.6 8.8 8.7
0.3 0.3 0.6 0.2 0.4 1.0 1.7 1.6 1.4 1.5 1.8 2.3 2.3 2.4 2.7 2.9 3.8 4.9 6.0 6.3 7.1 7.9 7.9 7.9 8.3 8.5 8.8 9.2 9.0 9.1 8.6 9.0 8.8 8.7 9.4 9.4 9.6 9.3 8.3 8.1 8.2 8.3 8.8
0.0 0.4 0.2 0.2 0.4 1.2 2.4 2.8 2.7 2.2 2.0 2.0 2.2 2.6 2.8 3.1 3.8 5.0 5.5 7.0 9.1 8.6 8.6 9.0 9.0 8.9 8.7 8.9 8.7 8.5 8.4 8.0 7.6 8.2 7.1 7.9 8.5 9.0 8.5 8.6 8.2 8.1 9.1
-0.0 -0.1 -0.2 0.3 0.4 1.1 2.8 3.3 3.3 2.4 2.3 2.5 2.8 3.2 3.4 4.5 4.4 4.7 5.6 7.4 8.7 9.0 8.7 8.3 8.3 8.3 8.1 8.4 8.3 7.8 7.5 7.0 7.7 8.7 9.3 8.5 9.1 9.2 9.6 8.8 7.9 7.7 7.8
0.2 0.2 -0.0 0.1 0.8 1.5 2.9 3.5 3.8 2.5 2.9 3.2 3.3 3.8 4.3 4.7 5.0 6.6 9.1 8.9 8.3 7.8 7.7 8.4 8.8 9.0 9.0 8.6 8.8 8.9 8.7 8.5 8.9 9.4 9.5 8.4 9.3 8.9 9.2 9.2 7.8 7.5 7.6
-0.0 0.0 0.1 0.4 1.1 1.5 2.7 3.5 4.0 3.5 3.5 3.5 3.4 3.6 5.0 5.9 7.0 9.5 9.1 8.1 8.5 8.9 8.8 8.6 8.8 8.7 8.2 8.5 8.6 9.1 8.2 8.1 8.2 8.8 9.3 9.0 8.9 8.9 8.8 8.5 8.8 8.7 8.5
0.1 0.4 0.6 0.4 1.7 1.5 1.9 4.0 4.8 3.7 3.7 4.0 3.8 4.2 5.3 7.2 8.7 9.2 8.8 9.0 8.2 7.8 8.7 9.1 8.0 7.5 7.2 7.4 7.5 8.2 8.3 7.6 7.9 8.0 9.1 8.0 8.5 8.6 8.1 9.3 9.5 8.9 7.9
Wind_Speed
6 5 5 5 4 4 5 5 6 6 6 6 5 4 4 4 5 5 6 14 14 12 11 12 11 10 10 9 7 9 10 10 10 9 8 9 10 10 9 8 7 6 8
7 6 4 5 4 4 5 5 5 4 4 3 3 3 3 2 4 5 5 7 12 12 11 11 11 11 10 9 8 8 9 10 10 10 9 8 9 10 8 7 6 8 10
7 7 5 4 4 4 6 6 5 4 3 4 2 3 2 3 2 3 4 5 6 9 10 10 10 10 10 10 9 9 8 8 9 10 10 10 9 9 10 8 8 8 8
8 7 5 4 4 4 4 4 3 3 2 3 2 1 1 2 2 2 3 3 4 5 6 8 9 9 10 9 9 9 9 9 9 9 9 9 10 10 9 9 8 8 9
7 7 6 5 5 5 4 3 3 3 2 2 2 1 0 1 1 1 2 2 3 4 4 6 8 8 10 10 10 10 10 10 9 10 10 10 10 10 10 10 9 9 9
9 8 6 6 5 4 3 3 3 4 2 3 2 1 0 1 1 1 1 1 2 3 4 5 7 7 9 11 12 12 13 13 12 12 12 12 12 11 11 11 12 12 11
8 8 7 6 6 4 4 3 2 4 5 5 1 2 3 2 2 1 2 3 3 4 4 5 5 6 8 10 11 12 13 14 14 14 14 14 14 14 14 13 14 14 14
8 8 7 5 6 4 5 6 2 2 3 6 3 1 3 2 3 4 3 3 4 4 4 5 6 6 8 9 9 12 12 14 15 15 15 15 15 15 16 16 16 16 16
8 9 8 7 6 5 4 4 4 3 3 4 7 3 2 2 3 2 3 3 3 4 6 7 8 8 9 9 10 10 11 13 15 16 17 18 18 17 18 18 18 18 18
8 8 9 6 7 6 5 5 4 3 2 4 2 5 5 2 2 3 1 2 3 7 7 7 10 9 8 7 7 8 9 11 14 16 17 19 21 21 21 21 21 21 20
7 7 9 6 6 5 6 5 4 5 3 3 2 1 2 3 3 1 3 4 6 4 5 9 10 10 7 7 5 5 8 14 18 19 19 20 20 21 23 24 25 22 23
4 5 8 6 6 6 5 4 5 5 4 4 3 2 2 1 1 1 2 3 7 4 7 5 6 6 7 6 5 7 13 23 22 21 22 22 23 23 24 25 27 26 23
3 4 6 5 4 7 6 6 4 5 3 4 3 2 2 1 1 0 2 4 3 4 3 4 3 8 8 6 7 16 23 21 22 22 22 22 22 23 23 24 26 29 27
4 7 6 8 6 7 6 6 4 4 4 3 3 1 1 0 1 1 1 2 5 3 4 5 6 3 4 6 17 20 19 21 21 22 23 22 22 23 23 24 25 26 28
5 8 8 8 8 6 6 6 4 4 4 3 3 2 1 1 0 1 3 3 3 4 7 5 4 5 13 18 18 19 18 20 24 24 24 25 24 23 23 24 24 25 26
7 7 6 8 7 7 7 6 5 4 5 3 3 3 2 1 2 2 3 3 4 6 6 4 8 12 20 20 21 22 20 20 19 22 22 23 24 24 23 23 24 25 26
7 8 7 7 7 6 6 6 6 5 5 4 3 3 3 2 3 3 3 3 4 4 8 10 8 11 14 14 19 23 21 20 19 20 22 23 23 25 25 26 26 25 25
8 8 8 8 6 6 5 6 5 4 5 4 3 3 4 4 5 4 4 6 6 7 7 14 11 10 12 13 14 14 16 18 20 20 22 23 25 25 24 25 26 26 25
8 8 8 7 6 5 6 5 5 5 5 3 3 4 5 5 6 6 6 6 6 6 8 10 11 10 10 10 11 10 11 15 18 20 23 27 26 25 26 27 27 27 26
9 8 7 6 6 5 5 5 5 5 4 4 4 4 5 6 7 8 8 9 8 9 9 9 10 11 10 9 8 9 11 10 10 18 22 26 27 28 29 26 26 25 26
8 7 7 5 5 5 3 5 5 4 5 5 5 5 5 8 11 10 8 9 10 9 8 9 9 9 10 10 12 10 11 11 12 11 10 10 11 16 19 22 22 25 25
7 7 6 6 6 3 8 9 6 5 4 5 6 7 7 9 8 12 13 13 12 9 12 11 11 12 14 13 12 11 11 13 11 7 5 10 13 11 11 18 27 29 27
6 6 6 5 5 4 9 8 7 3 4 5 6 7 7 6 11 9 13 15 13 17 17 14 14 14 15 15 14 14 11 8 10 11 11 11 9 11 12 19 24 28 29
6 6 5 4 4 4 7 7 6 3 4 5 6 7 7 9 9 12 12 12 11 12 11 9 12 15 14 13 14 12 13 13 11 10 10 12 11 12 11 16 24 27 28
5 4 3 4 4 3 7 8 6 4 5 6 6 6 8 9 13 18 12 12 13 12 17 21 23 23 25 28 22 10 9 10 11 11 10 10 10 12 12 11 13 17 20
5 3 4 3 3 3 7 8 8 3 5 5 6 7 11 13 18 19 13 12 12 13 12 12 13 15 19 18 20 12 9 10 10 11 8 8 10 9 8 9 7 12 13
Wind_Direction
119 114 101 92 82 84 85 98 95 88 87 85 77 78 73 62 53 59 59 47 49 47 44 43 40 30 23 27 32 29 20 19 14 7 3 3 1 356 355 3 14 15 15
128 120 112 97 89 89 104 102 94 89 84 82 88 69 61 44 59 64 57 53 50 46 41 37 33 28 20 14 11 15 16 15 15 8 0 359 357 357 347 344 359 359 357
129 125 117 106 93 87 110 107 95 86 89 91 83 71 56 48 72 67 61 47 42 38 34 31 28 23 16 8 0 358 358 359 358 357 355 347 346 349 352 345 351 347 352
131 126 120 102 94 91 101 105 82 88 78 68 53 49 57 56 72 81 65 52 44 33 24 21 18 12 4 357 351 347 345 342 339 338 336 336 335 332 330 331 328 322 317
125 121 114 104 98 94 87 101 76 68 27 21 330 289 272 162 104 111 93 72 40 27 12 2 5 1 356 350 344 337 333 330 326 326 321 317 317 316 313 308 304 305 309
125 119 111 107 108 98 93 86 92 72 47 346 323 32 337 245 205 178 16 26 23 12 5 356 346 341 344 343 339 335 331 326 317 312 312 308 305 302 302 300 299 292 288
124 120 114 105 96 91 82 80 79 66 40 2 349 78 71 31 63 48 1 353 21 15 358 352 339 330 327 327 323 322 317 315 313 312 310 305 301 297 293 292 291 289 286
128 120 123 113 111 105 92 71 79 112 59 17 52 75 39 107 64 33 44 40 42 31 11 358 339 322 317 312 308 308 305 302 298 295 295 295 293 289 286 285 282 282 281
125 122 119 116 106 103 89 83 63 70 91 54 42 52 80 26 324 18 40 45 68 1 335 331 328 327 323 317 317 317 318 314 306 297 290 288 287 284 279 276 276 272 272
127 130 113 121 110 104 99 89 80 72 97 73 71 50 62 58 23 326 248 330 333 335 338 335 325 326 332 327 324 322 340 343 331 318 307 297 291 287 284 279 272 271 267
129 132 116 126 110 109 99 99 97 81 70 89 65 99 76 66 68 19 294 319 328 328 318 322 317 323 332 331 332 347 353 341 327 316 308 304 299 294 288 284 282 278 274
130 130 115 119 115 114 107 115 102 91 92 93 88 73 67 52 42 356 298 302 303 306 311 305 309 315 316 322 319 332 332 327 320 313 307 302 299 296 293 292 286 278 275
147 150 132 131 122 115 115 117 106 103 92 91 86 85 107 104 142 204 269 300 303 314 309 282 288 310 310 320 321 334 318 316 314 311 307 305 304 302 298 294 289 286 279
137 143 141 125 127 107 120 114 104 98 101 98 103 94 60 178 201 212 259 289 304 288 304 300 310 316 328 325 310 315 313 314 316 312 308 306 303 300 295 291 288 285 283
123 127 126 117 105 116 114 110 99 97 95 90 85 78 34 38 92 260 249 242 261 299 304 306 306 308 316 316 312 312 308 309 310 309 309 306 304 300 296 292 288 285 281
120 124 120 106 108 103 103 102 94 84 89 78 75 57 24 340 331 307 280 266 244 262 277 291 288 303 310 312 313 315 311 306 303 304 308 307 303 301 301 298 294 290 285
126 117 113 111 109 102 97 94 88 81 77 68 51 17 345 336 328 312 300 289 284 267 279 294 294 299 299 302 307 311 312 313 313 310 309 305 300 298 296 294 294 290 290
112 121 112 106 108 101 95 87 86 74 62 43 17 351 343 341 331 324 314 307 293 293 288 299 308 307 303 304 302 301 304 307 306 303 307 305 304 299 297 297 294 290 287
113 107 104 109 110 103 90 82 78 66 52 33 5 352 341 337 328 324 318 309 304 298 296 295 306 312 307 307 302 296 294 303 300 295 301 298 294 296 295 294 293 292 294
112 104 100 107 101 93 83 75 67 54 36 18 5 356 341 335 325 322 320 315 314 309 306 301 305 311 309 306 300 302 307 306 298 291 286 283 292 298 295 295 294 294 291
105 104 111 98 89 81 69 64 57 46 23 4 6 352 338 329 329 332 327 319 315 310 309 309 306 307 311 313 311 313 299 299 294 291 288 290 292 293 288 293 289 293 293
103 107 98 93 80 65 55 46 51 40 20 2 346 342 338 331 327 325 321 312 315 322 314 310 307 307 307 314 310 305 297 299 299 330 335 295 282 285 288 286 295 301 299
116 102 89 90 85 59 47 38 41 29 3 352 340 335 330 322 317 309 299 304 306 314 314 310 307 304 305 306 304 297 296 313 302 308 307 296 302 285 289 292 294 294 295
108 107 100 82 82 50 35 24 21 14 346 335 326 315 308 307 308 313 317 318 313 310 306 302 295 298 294 294 301 309 302 301 299 305 308 294 305 293 297 295 290 290 292
107 97 101 86 65 34 9 6 2 342 331 321 304 296 307 313 304 324 323 318 316 312 310 305 306 307 306 309 309 310 306 307 302 305 307 292 302 302 298 293 287 284 289
109 107 89 66 43 13 356 349 346 329 310 313 317 305 299 318 324 321 319 322 315 314 312 320 323 315 313 309 311 306 305 303 303 304 311 302 301 309 308 299 315 296 295